Location: Newark
(55.7167°N, 12.5667°E)
Time: 03:17:12
(UTC+00:00)

N. Korean satellite - Pass Details

Date: 14 December 2019
Orbit: 454 x 508 km, 97.2° (Epoch: 19 January)

Event Time Altitude Azimuth Distance (km) Brightness Sun altitude
Rises 17:05:20 0° 204° (SSW) 2,599 10.8 -19.1°
Reaches altitude 10° 17:07:54 10° 223° (SW) 1,714 10.1 -19.5°
Maximum altitude 17:10:34 19° 270° (W) 1,259 9.6 -19.9°
Drops below altitude 10° 17:13:13 10° 316° (NW) 1,707 9.7 -20.2°
Sets 17:15:47 0° 335° (NNW) 2,585 10.4 -20.6°
